NUSAT-41 (C PAYNE-G)

导读

NUSAT-41(又名C PAYNE-G)由阿根廷于2023年6月12日08:00成功发射升空,归入低轨卫星星座体系。作为航天发射任务的组成部分,该卫星承载着阿根廷本土航天技术探索,服务于空间技术试验与对地观测相关需求,是阿根廷持续推进商业航天发展、拓展空间应用能力的最新实践。目前已在轨稳定运行近三年,助力南美地区空间基础设施建设。

基本信息
目录编号:
56944
目录名称:
NUSAT-41 (C PAYNE-G)
国际标识:
2023-084N
轨道中心:
EARTH
卫星名称:
NUSAT-41 (C PAYNE-G)
卫星全名:
--
卫星状态:
在轨 (已飞行1099 天)
发射日期:
2023-06-12 UTC
国别 :
阿根廷 (AR)
星等 :
--
轨道信息
数据来源 国际轨道数据
星历时间: 2026-06-14T23:20:18+0800
8小时前
查看轨道信息
半长轴: 6853.942km
偏心率: 0.0006252
轨道倾角: 97.551°
近地点辐角 339.722°
升交点赤经 302.310°
平近点角 20.377°
近地点: 471.519km
远地点: 480.091km
周期: 94.117分钟
每日圈数: 15.300027
详细信息
使用方式:
暂无
2D轨道图
3D轨道图
轨道高度分析图
轨道倾角分析图
轨道综合分析图
查看轨道综合分析图